Hourly Data Report for October 07, 2014

All times are specified in Local Standard Time (LST). Add 1 hour to adjust for Daylight Saving Time where and when it is observed.

ST LEONARD CS
NEW BRUNSWICK

47°09'28.050" N
67°49'55.014" W
245.00 m
810I001
71019
WIY

Download Data

Hourly Data (October 2014)
Hourly Data Report for October 7, 2014
Temp Definition
°C
Dew Point Temp Definition
°C
Rel Hum Definition
%
Wind Dir Definition
10's deg

Wind Spd Definition
km/h
Visibility Definition
km
Stn Press Definition
kPa
Hmdx Definition


Wind Chill Definition


Weather Definition


TIME
00:00 7.7 6.1 90 13 3   99.20     LegendNANA
01:00 7.0 5.8 92 13 2   99.24     LegendNANA
02:00 6.9 5.5 91 13 4   99.25     LegendNANA
03:00 7.2 5.0 86 13 3   99.21     LegendNANA
04:00 5.8 4.3 90 11 2   99.18     LegendNANA
05:00 5.5 3.9 90 11 2   99.20     LegendNANA
06:00 6.2 4.1 86 12 4   99.21     LegendNANA
07:00 6.5 4.1 85 13 3   99.25     LegendNANA
08:00 7.9 5.2 84 15 7   99.26     LegendNANA
09:00 9.0 6.2 83 15 5   99.22     LegendNANA
10:00 11.1 7.6 79 15 7   99.21     LegendNANA
11:00 12.9 8.6 75 16 9   99.14     LegendNANA
12:00 13.5 8.4 71 17 8   99.06     LegendNANA
13:00 14.5 8.6 67 16 9   98.97     LegendNANA
14:00 14.2 8.7 70 15 4   98.90     LegendNANA
15:00 14.9 9.0 68 15 5   98.84     LegendNANA
16:00 15.5 9.2 66 15 5   98.78     LegendNANA
17:00 14.9 10.2 73 16 5   98.81     LegendNANA
18:00 13.1 11.0 87 17 2   98.88     LegendNANA
19:00 12.2 11.2 94 15 2   98.85     LegendNANA
20:00 12.1 10.9 92 15 3   98.82     LegendNANA
21:00 11.9 10.4 91 15 3   98.80     LegendNANA
22:00 11.4 10.1 91 15 2   98.80     LegendNANA
23:00 11.2 9.7 91 16 2   98.78     LegendNANA

Notes on Data Quality.

Legend

  • E = Estimated
  • M = Missing
  • NA = Not Available
  • ‡ = Partner data that is not subject to review by the National Climate Archives
Date modified: